This is the latest recevied weather packets stored in our database for station/object NC4J. If no packets are shown the sender has not sent any weather packets the latest 10 day(s).
| Time | Temp. | Humidity | Pressure | Rain* | Wind** | Luminosity | Snow |
|---|---|---|---|---|---|---|---|
| 1778013293 | 21.11° C | 39% | 1015.3 hPa | 0 mm | - | 103 W/m² | - |
| 1778012990 | 21.11° C | 38% | 1015.4 hPa | 0 mm | - | 100 W/m² | - |
| 1778012687 | 21.11° C | 38% | 1015.4 hPa | 0 mm | - | 103 W/m² | - |
| 1778012383 | 21.11° C | 38% | 1015.5 hPa | 0 mm | - | 104 W/m² | - |
| 1778012080 | 21.11° C | 38% | 1015.8 hPa | 0 mm | - | 130 W/m² | - |
| 1778011778 | 21.67° C | 36% | 1015.7 hPa | 0 mm | - | 113 W/m² | - |
| 1778011475 | 21.67° C | 36% | 1015.7 hPa | 0 mm | - | 108 W/m² | - |
| 1778011171 | 21.67° C | 37% | 1015.6 hPa | 0 mm | - | 144 W/m² | - |
| 1778010868 | 21.67° C | 36% | 1015.6 hPa | 0 mm | - | 173 W/m² | - |
| 1778010565 | 21.67° C | 36% | 1015.8 hPa | 0 mm | - | 176 W/m² | - |
| 1778010263 | 22.22° C | 36% | 1015.7 hPa | 0 mm | - | 190 W/m² | - |
| 1778009962 | 22.22° C | 38% | 1015.6 hPa | 0 mm | - | 156 W/m² | - |
| 1778009661 | 22.22° C | 34% | 1015.8 hPa | 0 mm | - | 155 W/m² | - |
| 1778009358 | 22.22° C | 34% | 1015.8 hPa | 0 mm | - | 164 W/m² | - |
| 1778009056 | 22.22° C | 33% | 1016 hPa | 0 mm | - | 143 W/m² | - |
| 1778008754 | 22.78° C | 35% | 1016.4 hPa | 0 mm | - | 159 W/m² | - |
| 1778008452 | 22.22° C | 34% | 1016.3 hPa | 0 mm | - | 229 W/m² | - |
| 1778008148 | 21.67° C | 36% | 1016.2 hPa | 0 mm | - | 150 W/m² | - |
| 1778007844 | 22.22° C | 33% | 1016.4 hPa | 0 mm | - | 154 W/m² | - |
| 1778007539 | 22.22° C | 36% | 1016.2 hPa | 0 mm | - | 149 W/m² | - |
| 1778007236 | 22.22° C | 30% | 1016.1 hPa | 0 mm | - | 159 W/m² | - |
| 1778006932 | 22.22° C | 37% | 1016.3 hPa | 0 mm | - | 150 W/m² | - |
| 1778006629 | 22.22° C | 36% | 1016.4 hPa | 0 mm | - | 147 W/m² | - |
| 1778006326 | 22.22° C | 32% | 1016 hPa | 0 mm | - | 182 W/m² | - |
| 1778006023 | 22.22° C | 32% | 1016.3 hPa | 0 mm | - | 245 W/m² | - |
* Rain latest hour (hover to see other rain measurements)
** Current wind speed in m/s (hover to see current wind gust speed)